Location: アルンシュタイン
(50.0000°N, 10.0000°E)
Time: 22:18:43
(UTC+02:00)

A-11 Canister half - Pass Details

Date: 08 September 2025
Orbit: 1523 x 1684 km, 47.3° (Epoch: 11 April)

Event Time Altitude Azimuth Distance (km) Brightness Sun altitude
Rises 20:48:33 0° 289° (WNW) 4,891 14.0 -10.1°
Reaches altitude 10° 20:52:14 10° 279° (W) 3,919 12.6 -10.7°
Maximum altitude 21:00:16 28° 225° (SW) 2,757 10.6 -11.9°
Drops below altitude 10° 21:08:21 10° 172° (S) 3,938 10.8 -13.1°
Sets 21:12:06 0° 161° (SSE) 4,918 11.2 -13.6°
Enters shadow 21:12:16 - 161° (SSE) 4,967 11.3 -13.6°
